Location: Newark
(48.3453°N, 0.5589°E)
Time: 22:34:14
(UTC+00:00)

Tiros 1 - All Passes

Search period start: 11 December 2019 00:00
Search period end: 21 December 2019 00:00
Orbit: 630 x 664 km, 48.4° (Epoch: 11 December)

Date Brightness Start Highest point End Pass type
(mag) Time Alt. Az. Time Alt. Az. Time Alt. Az.
11 Dec - 04:30:20 10° SSE 04:31:45 11° SE 04:33:09 10° ESE visible
11 Dec - 06:08:38 10° SW 06:13:02 40° SSE 06:17:26 10° E visible
11 Dec - 07:50:19 10° WSW 07:55:01 85° S 07:59:42 10° E daylight
11 Dec - 09:32:34 10° W 09:37:16 83° SSW 09:41:55 10° ESE daylight
11 Dec - 11:14:54 10° W 11:19:12 37° SSW 11:23:26 10° SE daylight
12 Dec - 04:53:39 10° SSW 04:57:18 22° SE 05:00:55 10° E visible
12 Dec - 06:34:18 10° WSW 06:38:57 63° SSE 06:43:35 10° E visible
12 Dec - 08:16:24 10° W 08:21:08 88° N 08:25:48 10° E daylight
12 Dec - 09:58:40 10° W 10:03:17 62° SSW 10:07:51 10° ESE daylight
12 Dec - 11:41:25 10° W 11:44:53 21° SW 11:48:22 10° S daylight
13 Dec - 03:41:03 10° SE 03:41:46 10° SE 03:42:29 10° SE visible
13 Dec - 05:18:39 10° SW 05:23:01 38° SSE 05:27:23 10° E visible
13 Dec - 07:00:15 10° WSW 07:04:59 84° S 07:09:40 10° E visible
13 Dec - 08:42:31 10° W 08:47:14 85° S 08:51:53 10° ESE daylight
13 Dec - 10:24:50 10° W 10:29:11 39° SSW 10:33:29 10° SE daylight
13 Dec - 12:09:37 10° WSW 12:10:25 10° SW 12:11:14 10° SW daylight
14 Dec - 04:03:46 10° S 04:07:18 21° SE 04:10:49 10° E visible
14 Dec - 05:44:16 10° WSW 05:48:55 61° SSE 05:53:33 10° E visible
14 Dec - 07:26:21 10° W 07:31:05 88° N 07:35:46 10° E daylight
14 Dec - 09:08:37 10° W 09:13:16 65° SSW 09:17:51 10° ESE daylight
14 Dec - 10:51:18 10° W 10:54:54 23° SW 10:58:30 10° SSE daylight
15 Dec - 04:28:40 10° SW 04:33:01 37° SSE 04:37:20 10° E visible
15 Dec - 06:10:12 10° WSW 06:14:56 82° S 06:19:38 10° E visible
15 Dec - 07:52:28 10° W 07:57:12 86° S 08:01:52 10° E daylight
15 Dec - 09:34:46 10° W 09:39:11 41° SSW 09:43:31 10° SE daylight
15 Dec - 11:18:58 10° WSW 11:20:27 11° SW 11:21:56 10° SSW daylight
16 Dec - 03:13:54 10° S 03:17:18 20° SE 03:20:42 10° E visible
16 Dec - 04:54:14 10° WSW 04:58:54 58° SSE 05:03:31 10° E visible
16 Dec - 06:36:17 10° W 06:41:03 88° N 06:45:44 10° E visible
16 Dec - 08:18:34 10° W 08:23:14 67° SSW 08:27:51 10° ESE daylight
16 Dec - 10:01:11 10° W 10:04:55 24° SW 10:08:37 10° SSE daylight
17 Dec - 03:38:41 10° SSW 03:43:00 35° SSE 03:47:17 10° E visible
17 Dec - 05:20:09 10° WSW 05:24:54 80° SSE 05:29:37 10° E visible
17 Dec - 07:02:24 10° W 07:07:09 87° S 07:11:50 10° E visible
17 Dec - 08:44:42 10° W 08:49:10 44° SSW 08:53:34 10° SE daylight
17 Dec - 10:28:33 10° WSW 10:30:29 12° SW 10:32:24 10° SSW daylight
18 Dec - 02:24:02 10° S 02:27:18 19° SE 02:30:34 10° E night (unlit)
18 Dec - 04:04:12 10° SW 04:08:51 56° SSE 04:13:29 10° E visible
18 Dec - 05:46:14 10° W 05:50:59 89° N 05:55:42 10° E visible
18 Dec - 07:28:30 10° W 07:33:12 70° SSW 07:37:50 10° ESE daylight
18 Dec - 09:11:04 10° W 09:14:55 26° SW 09:18:45 10° SSE daylight
19 Dec - 02:48:43 10° SSW 02:52:59 33° SSE 02:57:13 10° E visible
19 Dec - 04:30:06 10° WSW 04:34:51 78° SSE 04:39:35 10° E visible
19 Dec - 06:12:21 10° W 06:17:06 88° S 06:21:48 10° E visible
19 Dec - 07:54:38 10° W 07:59:09 46° SSW 08:03:35 10° SE daylight
19 Dec - 09:38:14 10° WSW 09:40:30 14° SW 09:42:46 10° SSW daylight
20 Dec - 01:34:12 10° S 01:37:19 17° SE 01:40:25 10° E night (unlit)
20 Dec - 03:14:11 10° SW 03:18:50 54° SSE 03:23:26 10° E visible
20 Dec - 04:56:10 10° W 05:00:56 89° NNW 05:05:40 10° E visible
20 Dec - 06:38:27 10° W 06:43:10 72° SSW 06:47:49 10° ESE visible
20 Dec - 08:20:58 10° W 08:24:55 27° SW 08:28:51 10° SSE daylight
